This demonstration page uses our WeatherBlox Daily Observations layout. Learn more.

Left ArrowRight Arrow

39.92423, -83.80882

Hourly Observations for March 16, 2021

Temp ( °F °C ) Dew Point ( °F °C ) Humidity (%) Winds ( mph kmh ) Pressure ( in mb ) Visibility ( mi km ) Precip ( " mm )
12:56 am 00:56 Cloudy 34 1.1 34 1.1 100 100 SE 10 17 30.01 1016 10 16 N/A
1:56 am 01:56 Cloudy 36 2.2 36 2.2 100 100 SE 9 15 29.99 1016 10 16 N/A
2:04 am 02:04 Cloudy 36 2 36 2 100 100 SE 9 15 30.00 1016 10 16 N/A
2:56 am 02:56 Cloudy 36 2.2 36 2.2 100 100 SE 12 19 29.96 1015 10 16 N/A
3:54 am 03:54 Cloudy 37 3 37 3 100 100 WNW 21 33 30.04 1017 10 16 N/A
3:56 am 03:56 Cloudy 38 3.3 38 3.3 100 100 WNW 15 24 30.02 1017 10 16 N/A
4:06 am 04:06 Cloudy with Light Rain 37 3 37 3 100 100 NW 12 19 30.01 1016 10 16 N/A
4:25 am 04:25 Cloudy with Light Rain 37 3 37 3 100 100 NNE 8 13 29.97 1015 3 4 N/A
4:34 am 04:34 Cloudy with Light Rain 37 3 37 3 100 100 E 9 15 29.95 1014 4 6 N/A
4:56 am 04:56 Cloudy with Mist and Fog 37 2.8 37 2.8 100 100 N N/A 29.96 1015 6 10 N/A
5:56 am 05:56 Cloudy with Light Rain 38 3.3 38 3.3 100 100 E 7 11 29.93 1014 5 8 N/A
6:27 am 06:27 Mostly Cloudy with Mist and Fog 37 3 37 3 100 100 SSE 7 11 29.95 1014 5 8 N/A
6:56 am 06:56 Partly Cloudy with Mist and Fog 36 2.2 36 2.2 100 100 E 6 9 29.93 1014 4 6 N/A
7:46 am 07:46 Sunny with Mist and Fog 36 2 36 2 100 100 SE 5 7 29.95 1014 2 3 N/A
7:56 am 07:56 Partly Cloudy with Mist and Fog 36 2.2 36 2.2 100 100 SE 7 11 29.94 1014 2 3 N/A
8:48 am 08:48 Sunny with Mist and Fog 37 3 37 3 100 100 ESE 5 7 29.94 1014 2 3 N/A
8:56 am 08:56 Sunny with Mist and Fog 38 3.3 38 3.3 100 100 SE 5 7 29.93 1014 3 4 N/A
9:08 am 09:08 Sunny with Mist and Fog 39 4 39 4 100 100 SE 5 7 29.94 1014 3 5 N/A
9:26 am 09:26 Partly Cloudy with Mist and Fog 41 5 41 5 100 100 SSE 7 11 29.93 1014 5 8 N/A
9:46 am 09:46 Mostly Cloudy with Mist and Fog 43 6 43 6 100 100 S 5 7 29.94 1014 5 8 N/A
9:56 am 09:56 Cloudy with Mist and Fog 43 6.1 43 6.1 100 100 S 6 9 29.94 1014 3 4 N/A
10:15 am 10:15 Cloudy with Mist and Fog 45 7 45 7 100 100 S 6 9 29.94 1014 4 6 N/A
10:56 am 10:56 Cloudy with Mist and Fog 46 7.8 46 7.8 100 100 SSW 5 7 29.96 1015 4 6 N/A
11:56 am 11:56 Cloudy with Mist and Fog 49 9.4 49 9.4 100 100 W 7 11 29.96 1015 4 6 N/A
12:56 pm 12:56 Cloudy with Mist and Fog 49 9.4 49 9.4 100 100 WNW 7 11 29.96 1015 4 6 N/A
1:14 pm 13:14 Cloudy with Mist and Fog 48 9 48 9 100 100 W 7 11 29.96 1014 3 4 N/A
1:29 pm 13:29 Cloudy with Mist and Fog 48 9 48 9 100 100 WNW 6 9 29.96 1014 2 2 N/A
1:42 pm 13:42 Cloudy with Mist and Fog 48 9 48 9 100 100 NW 7 11 29.96 1014 3 4 N/A
1:56 pm 13:56 Cloudy with Mist and Fog 49 9.4 49 9.4 100 100 WNW 6 9 29.96 1015 3 4 N/A
2:06 pm 14:06 Cloudy with Mist and Fog 48 9 48 9 100 100 NW 6 9 29.96 1014 3 5 N/A
2:45 pm 14:45 Cloudy with Mist and Fog 48 9 48 9 100 100 NW 7 11 29.95 1014 6 10 N/A
2:56 pm 14:56 Cloudy 49 9.4 49 9.4 100 100 WNW 6 9 29.95 1014 7 11 N/A
3:09 pm 15:09 Cloudy 50 10 50 10 100 100 NNW 7 11 29.94 1014 9 14 N/A
3:56 pm 15:56 Cloudy 50 10 49 9.4 96 96 NW 6 9 29.96 1015 8 13 N/A
4:08 pm 16:08 Cloudy 50 10 48 9 94 94 NNW 6 9 29.95 1014 9 14 N/A
4:56 pm 16:56 Cloudy 50 10 49 9.4 96 96 NNW 5 7 29.97 1015 10 16 N/A
5:56 pm 17:56 Cloudy 51 10.6 49 9.4 92 92 WNW 6 9 29.98 1015 10 16 N/A
6:56 pm 18:56 Cloudy 50 10 48 8.9 93 93 WNW 5 7 29.98 1015 10 16 N/A
7:56 pm 19:56 Cloudy 49 9.4 48 8.9 97 97 N N/A 29.99 1016 10 16 N/A
8:56 pm 20:56 Cloudy 47 8.3 47 8.3 100 100 NNW 5 7 30.02 1017 10 16 N/A
9:24 pm 21:24 Partly Cloudy 45 7 45 7 100 100 N 6 9 30.02 1017 10 16 N/A
9:56 pm 21:56 Mostly Clear 44 6.7 44 6.7 100 100 N 6 9 30.03 1017 10 16 N/A
10:56 pm 22:56 Clear 41 5 41 5 100 100 N 6 9 30.04 1017 7 11 N/A
11:56 pm 23:56 Mostly Cloudy with Mist and Fog 40 4.4 40 4.4 100 100 NNW 7 11 30.04 1017 3 5 N/A

Powered by AerisWeather